FW6456 Weather Reports


time (UTC)temp
C
wind
direction
speed
KPH
gust
KPH
rain 1hr
cm
rain 24hr
cm
rain mn
cm
humidity
%
barometer
mb
20260505122237 16 86 0.0 0.0 0.00 0.00 0.00 80 3402.6
20260505121734 16 85 0.0 0.0 0.00 0.00 0.00 81 3402.2
20260505121230 16 80 0.0 3.2 0.00 0.00 0.00 81 3402.3
20260505120727 16 80 0.0 0.0 0.00 0.00 0.00 81 3402.2
20260505120223 16 80 0.0 0.0 0.00 0.00 0.00 81 3402.3
20260505115721 15 94 0.0 0.0 0.00 0.00 0.00 82 3402.1
20260505115219 15 100 0.0 3.2 0.00 0.00 0.00 82 3402.0
20260505114717 15 106 0.0 0.0 0.00 0.00 0.00 82 3402.0
20260505114212 15 106 0.0 0.0 0.00 0.00 0.00 82 3401.5
20260505113709 15 106 0.0 0.0 0.00 0.00 0.00 82 3401.6
20260505113206 15 60 0.0 0.0 0.00 0.00 0.00 82 3401.6
20260505112702 15 60 0.0 0.0 0.00 0.00 0.00 82 3401.7
20260505112200 15 60 0.0 3.2 0.00 0.00 0.00 82 3401.7
20260505111659 15 60 0.0 0.0 0.00 0.00 0.00 83 3401.8
20260505111155 15 49 0.0 0.0 0.00 0.00 0.00 83 3401.6
20260505110652 15 49 0.0 0.0 0.00 0.00 0.00 83 3401.4
20260505110149 15 49 0.0 0.0 0.00 0.00 0.00 83 3401.6
20260505102125 14 58 0.0 0.0 0.00 0.00 0.00 84 3401.8
20260505101624 14 58 0.0 0.0 0.00 0.00 0.00 84 3401.6
20260505101119 15 58 0.0 0.0 0.00 0.00 0.00 84 3401.7
20260505100616 15 58 0.0 0.0 0.00 0.00 0.00 83 3401.9
20260505100113 15 58 0.0 0.0 0.00 0.00 0.00 84 3401.8
20260505095609 14 58 0.0 0.0 0.00 0.00 0.00 84 3401.7
20260505095106 15 58 0.0 0.0 0.00 0.00 0.00 84 3401.7
20260505094602 14 58 0.0 0.0 0.00 0.00 0.00 84 3401.9
20260505094058 14 58 0.0 0.0 0.00 0.00 0.00 84 3401.9
20260505093554 14 51 0.0 0.0 0.00 0.00 0.00 84 3401.9
20260505093052 15 51 0.0 0.0 0.00 0.00 0.00 84 3401.7
20260505092549 15 51 0.0 0.0 0.00 0.00 0.00 83 3401.8
20260505092048 15 51 0.0 0.0 0.00 0.00 0.00 83 3401.8
20260505091544 15 51 0.0 0.0 0.00 0.00 0.00 83 3401.6
20260505091043 15 51 0.0 0.0 0.00 0.00 0.00 83 3401.7
20260505090540 15 51 0.0 0.0 0.00 0.00 0.00 82 3401.9
20260505090038 15 51 0.0 0.0 0.00 0.00 0.00 82 3401.7
20260505085536 15 51 0.0 0.0 0.00 0.00 0.00 82 3401.8
20260505085034 15 51 0.0 0.0 0.00 0.00 0.00 81 3402.0
20260505084531 15 51 0.0 0.0 0.00 0.00 0.00 81 3401.8
20260505084029 15 51 0.0 0.0 0.00 0.00 0.00 81 3401.7
20260505083526 15 51 0.0 0.0 0.00 0.00 0.00 80 3401.7
20260505083023 15 51 0.0 0.0 0.00 0.00 0.00 79 3401.5
20260505082518 15 51 0.0 0.0 0.00 0.00 0.00 78 3401.7
20260505082015 16 51 0.0 0.0 0.00 0.00 0.00 78 3401.5
20260505081512 16 51 0.0 0.0 0.00 0.00 0.00 77 3401.5
20260505081009 16 49 0.0 0.0 0.00 0.00 0.00 77 3401.7
20260505080505 16 49 0.0 3.2 0.00 0.00 0.00 77 3401.5
20260505080001 16 67 0.0 0.0 0.00 0.00 0.00 77 3401.6
20260505075458 16 125 0.0 0.0 0.00 0.00 0.00 76 3401.4
20260505074955 16 126 0.0 0.0 0.00 0.00 0.00 76 3401.5
20260505074452 16 66 0.0 0.0 0.00 0.00 0.00 76 3401.7
20260505073949 16 65 0.0 0.0 0.00 0.00 0.00 76 3401.4
20260505073447 16 120 0.0 0.0 0.00 0.00 0.00 75 3401.4
20260505072944 16 107 0.0 0.0 0.00 0.00 0.00 75 3401.5
20260505072440 16 108 0.0 0.0 0.00 0.00 0.00 75 3401.3
20260505071936 16 107 0.0 0.0 0.00 0.00 0.00 74 3401.3
20260505071432 17 107 0.0 0.0 0.00 0.00 0.00 74 3401.3
20260505070931 17 106 0.0 0.0 0.00 0.00 0.00 73 3401.4
20260505070427 17 70 0.0 0.0 0.00 0.00 0.00 73 3401.5
20260505065922 17 65 0.0 0.0 0.00 0.00 0.00 73 3401.6
20260505065419 17 91 0.0 0.0 0.00 0.00 0.00 74 3401.3
20260505064916 17 100 0.0 0.0 0.00 0.00 0.00 73 3401.2
20260505064413 17 129 0.0 0.0 0.00 0.00 0.00 73 3401.3
20260505063912 17 111 0.0 0.0 0.00 0.00 0.00 72 3401.3
20260505063407 17 103 0.0 0.0 0.00 0.00 0.00 72 3401.0
20260505062904 17 68 0.0 0.0 0.00 0.00 0.00 72 3401.3
20260505062401 17 83 0.0 0.0 0.00 0.00 0.00 72 3401.1
20260505061858 17 123 1.6 3.2 0.00 0.00 0.00 72 3401.2
20260505061356 17 117 0.0 0.0 0.00 0.00 0.00 73 3401.4
20260505060854 17 111 0.0 0.0 0.00 0.00 0.00 72 3401.2
20260505060350 17 143 0.0 0.0 0.00 0.00 0.00 72 3401.4
20260505055846 17 141 0.0 3.2 0.00 0.00 0.00 71 3401.4
20260505055342 17 148 0.0 3.2 0.00 0.00 0.00 71 3401.4
20260505054840 17 146 0.0 0.0 0.00 0.00 0.00 71 3401.4
20260505054337 17 147 0.0 0.0 0.00 0.00 0.00 71 3401.7
20260505053835 17 146 0.0 0.0 0.00 0.00 0.00 71 3401.6
20260505053332 17 160 1.6 3.2 0.00 0.00 0.00 72 3401.6
20260505052828 17 163 0.0 0.0 0.00 0.00 0.00 71 3401.5
20260505052325 17 164 0.0 0.0 0.00 0.00 0.00 72 3401.5
20260505051823 17 164 1.6 4.8 0.00 0.00 0.00 70 3401.2
20260505051320 17 164 0.0 0.0 0.00 0.00 0.00 70 3401.5
20260505050818 17 163 0.0 3.2 0.00 0.00 0.00 70 3401.3
20260505050317 17 160 0.0 0.0 0.00 0.00 0.00 72 3401.5
20260505041746 18 159 0.0 0.0 0.00 0.00 0.00 70 3401.5
20260505041243 18 159 0.0 0.0 0.00 0.00 0.00 69 3401.5
20260505040741 18 159 0.0 0.0 0.00 0.00 0.00 68 3401.5
20260505040238 18 159 0.0 0.0 0.00 0.00 0.00 68 3401.2
20260505035735 18 159 0.0 0.0 0.00 0.00 0.00 68 3401.6
20260505035230 18 159 0.0 0.0 0.00 0.00 0.00 67 3401.4
20260505034728 18 159 0.0 0.0 0.00 0.00 0.00 66 3401.4
20260505034224 18 159 0.0 0.0 0.00 0.00 0.00 66 3401.5
20260505033721 18 159 0.0 0.0 0.00 0.00 0.00 66 3401.5
20260505033219 19 160 0.0 0.0 0.00 0.00 0.00 65 3401.1
20260505032717 19 119 1.6 3.2 0.00 0.00 0.00 65 3401.4
20260505032212 19 90 0.0 0.0 0.00 0.00 0.00 65 3401.4
20260505031710 19 89 0.0 0.0 0.00 0.00 0.00 64 3401.2
20260505031206 19 84 0.0 0.0 0.00 0.00 0.00 64 3401.4
20260505030703 20 84 0.0 0.0 0.00 0.00 0.00 64 3401.3
20260505030159 19 132 0.0 0.0 0.00 0.00 0.00 64 3401.2
20260505025655 20 134 0.0 0.0 0.00 0.00 0.00 64 3401.2
20260505025154 20 131 0.0 0.0 0.00 0.00 0.00 63 3400.9
20260505024651 20 116 0.0 0.0 0.00 0.00 0.00 63 3401.1
20260505024148 20 116 3.2 3.2 0.00 0.00 0.00 62 3400.8
20260505023646 20 131 4.8 4.8 0.00 0.00 0.00 62 3400.8
20260505023143 20 101 0.0 0.0 0.00 0.00 0.00 63 3400.8
20260505022640 20 134 0.0 0.0 0.00 0.00 0.00 63 3400.7
20260505022137 20 135 0.0 0.0 0.00 0.00 0.00 63 3400.4
20260505021634 20 279 0.0 0.0 0.00 0.00 0.00 63 3400.5
20260505021130 20 279 0.0 0.0 0.00 0.00 0.00 63 3400.5
20260505020626 20 308 0.0 0.0 0.00 0.00 0.00 63 3400.1
20260505020122 20 308 0.0 0.0 0.00 0.00 0.00 62 3400.1
20260505015619 20 75 0.0 0.0 0.00 0.00 0.00 63 3400.3
20260505015116 20 75 0.0 0.0 0.00 0.00 0.00 62 3400.3
20260505014613 20 105 0.0 0.0 0.00 0.00 0.00 62 3400.0
20260505014110 20 106 0.0 0.0 0.00 0.00 0.00 61 3400.1
20260505013607 20 105 0.0 0.0 0.00 0.00 0.00 61 3400.1
20260505013104 21 106 0.0 0.0 0.00 0.00 0.00 60 3400.0
20260505012602 21 106 0.0 0.0 0.00 0.00 0.00 59 3399.9
20260505012059 21 106 0.0 0.0 0.00 0.00 0.00 59 3399.9
20260505011554 21 106 0.0 3.2 0.00 0.00 0.00 59 3400.0
20260505011052 21 106 0.0 0.0 0.00 0.00 0.00 59 3399.8
20260505010547 21 106 0.0 0.0 0.00 0.00 0.00 57 3399.8
20260505010044 22 106 0.0 0.0 0.00 0.00 0.00 56 3399.9
20260505005540 22 106 0.0 0.0 0.00 0.00 0.00 54 3399.8
20260505005038 22 105 0.0 0.0 0.00 0.00 0.00 52 3399.9
20260505004535 22 103 0.0 0.0 0.00 0.00 0.00 52 3400.0
20260505004032 23 131 0.0 0.0 0.00 0.00 0.00 51 3400.0
20260505003529 23 110 1.6 3.2 0.00 0.00 0.00 51 3400.1
20260505003026 23 92 0.0 0.0 0.00 0.00 0.00 51 3400.0
20260505002521 23 95 1.6 3.2 0.00 0.00 0.00 49 3400.2
20260505002020 23 123 0.0 3.2 0.00 0.00 0.00 48 3400.3
20260505001517 24 179 6.4 11.3 0.00 0.00 0.00 47 3400.2
20260505001014 24 128 0.0 3.2 0.00 0.00 0.00 49 3400.3
20260505000512 24 121 0.0 0.0 0.00 0.00 0.00 47 3400.4
20260505000009 24 131 1.6 3.2 0.00 0.00 0.00 47 3400.2
20260504235506 25 79 1.6 3.2 0.00 0.00 0.00 47 3400.4
20260504235002 25 156 1.6 3.2 0.00 0.00 0.00 47 3400.4
20260504234459 25 118 0.0 0.0 0.00 0.00 0.00 46 3400.3
20260504233956 25 125 1.6 3.2 0.00 0.00 0.00 45 3400.6
20260504233451 25 183 8.0 8.0 0.00 0.00 0.00 45 3400.6
20260504232949 25 155 1.6 4.8 0.00 0.00 0.00 47 3400.8
20260504232446 25 260 4.8 8.0 0.00 0.00 0.00 45 3400.7
20260504231943 25 126 3.2 3.2 0.00 0.00 0.00 45 3400.9
20260504231439 25 220 11.3 16.1 0.00 0.00 0.00 45 3400.9
20260504230935 26 186 8.0 11.3 0.00 0.00 0.00 45 3401.0
20260504230432 26 170 6.4 11.3 0.00 0.00 0.00 45 3401.2
20260504225932 26 102 3.2 3.2 0.00 0.00 0.00 44 3401.2
20260504225428 26 98 3.2 4.8 0.00 0.00 0.00 44 3401.1
20260504224925 26 246 1.6 3.2 0.00 0.00 0.00 44 3401.3
20260504224421 27 146 3.2 4.8 0.00 0.00 0.00 43 3401.2
20260504223919 27 211 8.0 12.9 0.00 0.00 0.00 42 3401.3
20260504223414 27 286 1.6 4.8 0.00 0.00 0.00 43 3401.3
20260504222910 27 203 9.7 16.1 0.00 0.00 0.00 42 3401.4
20260504222407 27 256 19.3 24.1 0.00 0.00 0.00 42 3401.4
20260504221906 27 109 1.6 3.2 0.00 0.00 0.00 44 3401.4
20260504221402 27 134 6.4 11.3 0.00 0.00 0.00 42 3401.3
20260504220859 27 214 11.3 12.9 0.00 0.00 0.00 42 3401.3
20260504220356 27 246 6.4 8.0 0.00 0.00 0.00 42 3401.2
20260504215853 27 25 3.2 4.8 0.00 0.00 0.00 42 3401.5
20260504215349 27 286 4.8 8.0 0.00 0.00 0.00 42 3401.3
20260504214846 27 290 11.3 16.1 0.00 0.00 0.00 44 3401.3
20260504214343 27 150 1.6 3.2 0.00 0.00 0.00 44 3401.2
20260504213840 26 186 11.3 16.1 0.00 0.00 0.00 45 3401.2
20260504213335 26 75 3.2 3.2 0.00 0.00 0.00 46 3400.9
20260504212833 26 138 6.4 8.0 0.00 0.00 0.00 44 3401.2
20260504212329 26 76 4.8 8.0 0.00 0.00 0.00 44 3401.2
20260504211827 26 123 1.6 3.2 0.00 0.00 0.00 44 3401.2
20260504211322 27 204 6.4 12.9 0.00 0.00 0.00 45 3401.1
20260504210820 27 84 3.2 4.8 0.00 0.00 0.00 44 3401.0
20260504210317 27 228 4.8 8.0 0.00 0.00 0.00 44 3401.2
20260504205814 27 238 11.3 17.7 0.00 0.00 0.00 43 3401.1
20260504205312 27 273 1.6 4.8 0.00 0.00 0.00 45 3401.0
20260504204810 27 105 0.0 0.0 0.00 0.00 0.00 44 3400.8
20260504204308 27 74 3.2 4.8 0.00 0.00 0.00 45 3401.1
20260504203807 26 147 3.2 4.8 0.00 0.00 0.00 45 3401.4
20260504203304 27 180 11.3 16.1 0.00 0.00 0.00 44 3401.3
20260504202758 27 140 4.8 4.8 0.00 0.00 0.00 44 3401.1
20260504202256 27 156 11.3 20.9 0.00 0.00 0.00 46 3401.1
20260504201753 27 223 8.0 11.3 0.00 0.00 0.00 46 3401.1
20260504201250 27 162 4.8 4.8 0.00 0.00 0.00 50 3401.2
20260504200748 27 151 1.6 3.2 0.00 0.00 0.00 47 3401.3
20260504200243 27 117 0.0 3.2 0.00 0.00 0.00 47 3401.3
20260504195740 27 109 3.2 8.0 0.00 0.00 0.00 49 3401.1
20260504195236 27 144 4.8 8.0 0.00 0.00 0.00 48 3401.0
20260504194734 26 186 9.7 12.9 0.00 0.00 0.00 49 3401.1
20260504194229 27 181 3.2 4.8 0.00 0.00 0.00 47 3401.4
20260504193726 27 162 4.8 8.0 0.00 0.00 0.00 47 3401.6
20260504193224 27 137 1.6 3.2 0.00 0.00 0.00 46 3401.5
20260504192722 27 263 9.7 16.1 0.00 0.00 0.00 46 3401.3
20260504192219 27 142 0.0 0.0 0.00 0.00 0.00 49 3401.6
20260504191718 26 105 3.2 4.8 0.00 0.00 0.00 50 3401.9
20260504191215 26 12 1.6 4.8 0.00 0.00 0.00 49 3401.8
20260504190710 26 83 0.0 3.2 0.00 0.00 0.00 48 3402.0
20260504190206 26 173 8.0 20.9 0.00 0.00 0.00 47 3402.1
20260504185703 26 80 4.8 8.0 0.00 0.00 0.00 48 3402.1
20260504185159 26 125 4.8 8.0 0.00 0.00 0.00 49 3402.2
20260504184655 26 222 8.0 12.9 0.00 0.00 0.00 48 3402.2
20260504184150 26 220 11.3 12.9 0.00 0.00 0.00 50 3402.1
20260504183648 26 52 3.2 4.8 0.00 0.00 0.00 49 3402.1
20260504183145 26 42 1.6 3.2 0.00 0.00 0.00 50 3402.2
20260504182643 26 95 1.6 3.2 0.00 0.00 0.00 50 3402.3
20260504182140 26 227 9.7 16.1 0.00 0.00 0.00 50 3402.7
20260504181637 27 295 11.3 20.9 0.00 0.00 0.00 48 3402.4
20260504181135 27 339 4.8 12.9 0.00 0.00 0.00 52 3402.3
20260504180634 27 292 3.2 4.8 0.00 0.00 0.00 51 3402.4
20260504180132 26 245 3.2 4.8 0.00 0.00 0.00 52 3402.7
20260504175629 26 137 3.2 4.8 0.00 0.00 0.00 52 3402.7
20260504175125 26 319 4.8 4.8 0.00 0.00 0.00 52 3402.9
20260504174624 26 17 9.7 12.9 0.00 0.00 0.00 53 3402.9
20260504174120 25 187 8.0 12.9 0.00 0.00 0.00 55 3402.9
20260504173618 25 90 1.6 3.2 0.00 0.00 0.00 53 3403.0
20260504173115 25 138 4.8 4.8 0.00 0.00 0.00 56 3403.1
20260504172611 25 137 1.6 3.2 0.00 0.00 0.00 53 3403.3
20260504172108 25 152 3.2 4.8 0.00 0.00 0.00 54 3403.2
20260504171604 25 109 4.8 8.0 0.00 0.00 0.00 55 3403.2
20260504171102 24 29 1.6 3.2 0.00 0.00 0.00 55 3403.1
20260504170557 24 130 4.8 8.0 0.00 0.00 0.00 56 3403.3
20260504150941 19 262 0.0 0.0 0.00 0.00 0.00 73 3404.6
20260504150438 19 114 1.6 3.2 0.00 0.00 0.00 71 3404.4
20260504140904 16 85 0.0 3.2 0.00 0.00 0.00 76 3405.2
20260504140400 16 86 0.0 0.0 0.00 0.00 0.00 76 3404.8
20260504130325 13 94 0.0 0.0 0.00 0.00 0.00 78 3405.8